TimeCDT,TemperatureF,Dew PointF,Humidity,Sea Level PressureIn,VisibilityMPH,Wind Direction,Wind SpeedMPH,Gust SpeedMPH,PrecipitationIn,Events,Conditions,WindDirDegrees,DateUTC
12:53 AM,51.1,39.9,66,30.02,10.0,West,8.1,-,N/A,,Overcast,270,2013-10-22 05:53:00
1:53 AM,51.1,39.9,66,30.01,10.0,West,5.8,-,N/A,,Overcast,270,2013-10-22 06:53:00
2:53 AM,53.1,42.1,66,30.01,10.0,West,8.1,-,N/A,,Overcast,280,2013-10-22 07:53:00
3:53 AM,52.0,41.0,66,30.01,10.0,West,5.8,-,N/A,,Overcast,260,2013-10-22 08:53:00
4:53 AM,50.0,39.9,68,30.01,10.0,West,5.8,-,N/A,,Clear,270,2013-10-22 09:53:00
5:53 AM,50.0,39.9,68,30.02,10.0,NW,8.1,-,N/A,,Clear,310,2013-10-22 10:53:00
6:53 AM,50.0,39.9,68,30.04,10.0,WNW,5.8,-,N/A,,Clear,300,2013-10-22 11:53:00
7:53 AM,48.9,39.9,71,30.05,10.0,West,4.6,-,N/A,,Clear,280,2013-10-22 12:53:00
8:53 AM,51.1,41.0,68,30.07,10.0,WNW,5.8,-,N/A,,Clear,290,2013-10-22 13:53:00
9:53 AM,55.0,41.0,59,30.08,10.0,NW,8.1,-,N/A,,Scattered Clouds,320,2013-10-22 14:53:00
10:53 AM,61.0,39.9,46,30.08,10.0,NW,13.8,-,N/A,,Clear,310,2013-10-22 15:53:00
11:53 AM,64.0,39.9,41,30.07,10.0,NW,11.5,-,N/A,,Clear,310,2013-10-22 16:53:00
12:53 PM,64.9,39.0,39,30.06,10.0,NW,18.4,23.0,N/A,,Partly Cloudy,320,2013-10-22 17:53:00
1:53 PM,66.9,39.0,36,30.05,10.0,North,15.0,21.9,N/A,,Clear,360,2013-10-22 18:53:00
2:53 PM,68.0,39.0,35,30.03,10.0,North,16.1,23.0,N/A,,Mostly Cloudy,350,2013-10-22 19:53:00
3:53 PM,66.9,37.9,34,30.03,10.0,NNW,12.7,19.6,N/A,,Clear,340,2013-10-22 20:53:00
4:53 PM,66.9,37.9,34,30.04,10.0,North,15.0,21.9,N/A,,Clear,350,2013-10-22 21:53:00
5:53 PM,64.0,37.9,38,30.05,10.0,NNE,10.4,-,N/A,,Clear,20,2013-10-22 22:53:00
6:53 PM,54.0,39.9,59,30.08,10.0,North,5.8,-,N/A,,Clear,360,2013-10-22 23:53:00
7:53 PM,48.0,39.9,74,30.10,10.0,North,4.6,-,N/A,,Clear,350,2013-10-23 00:53:00
8:53 PM,46.9,39.9,77,30.11,10.0,Calm,Calm,-,N/A,,Mostly Cloudy,0,2013-10-23 01:53:00
9:53 PM,45.0,37.9,76,30.12,10.0,NNE,8.1,-,N/A,,Clear,30,2013-10-23 02:53:00
10:53 PM,41.0,37.9,89,30.13,10.0,West,3.5,-,N/A,,Clear,260,2013-10-23 03:53:00
11:53 PM,41.0,36.0,82,30.12,10.0,East,5.8,-,N/A,,Clear,80,2013-10-23 04:53:00